Manhattan, KS

4:24 AM CDT on May 29, 2017 (GMT -0500)
Manhattan Regional

Weather History for KMHK - December, 2013

Change the Weather History Date:

Friday, December 13, 2013

  Actual Average Record
Temperature  
Mean Temperature 32 °F 31 °F  
Max Temperature 48 °F 42 °F 61 °F (2006)
Min Temperature 16 °F 20 °F 7 °F (2000)
Degree Days  
Heating Degree Days 33 34  
Month to date heating degree days 510 418  
Since 1 July heating degree days 1597 1493  
Cooling Degree Days 0 0  
Month to date cooling degree days 0 0  
Year to date cooling degree days 1513 1362  
Moisture  
Dew Point 30 °F    
Average Humidity 74    
Maximum Humidity 92    
Minimum Humidity 56    
Precipitation  
Precipitation 0.00 in 0.03 in 2.16 in (2015)
Month to date precipitation 0.02 0.50  
Year to date precipitation 28.62 32.03  
Sea Level Pressure  
Sea Level Pressure 29.93 in    
Wind  
Wind Speed 6 mph (NE)    
Max Wind Speed 15 mph    
Max Gust Speed 21 mph    
Visibility 6 miles    
Events      
T = Trace of Precipitation, MM = Missing Value Source: NWS Daily Summary

Daily Weather History Graph

Daily Weather History Graph

Search for Another Location

Airport or City:

Trip Planner

Search our weather history database for the weather conditions in past years. The results will help you decide how hot, cold, wet, or windy it might be!

Date:

Astronomy

Dec. 13, 2013 Rise Set
Actual Time 7:37 AM CST 5:04 PM CST
Civil Twilight 7:07 AM CST 5:34 PM CST
Nautical Twilight 6:33 AM CST 6:08 PM CST
Astronomical Twilight 6:01 AM CST 6:40 PM CST
Moon 2:47 PM CST (12/13) 4:02 AM CST (12/13)
Length of Visible Light 10h 26m
Length of Day
9h 26m
Waxing Gibbous, 88% of the Moon is Illuminated
Dec 13
Waxing Gibbous
Dec 17
Full
Dec 25
Last Quarter
Jan 1
New
Jan 7
First Quarter

Hourly Weather History & Observations

Time (CST) Temp. Windchill Dew Point Humidity Pressure Visibility Wind Dir Wind Speed Gust Speed Precip Events Conditions
12:52 AM 26.1 °F 20.5 °F 21.0 °F 81% 30.10 in 9.0 mi SSW 4.6 mph - N/A   Clear
1:52 AM 23.0 °F - 19.9 °F 88% 30.08 in 8.0 mi Calm Calm - N/A   Clear
2:52 AM 24.1 °F - 21.0 °F 88% 30.06 in 7.0 mi Calm Calm - N/A   Clear
3:52 AM 21.0 °F - 19.0 °F 92% 30.04 in 5.0 mi Calm Calm - N/A   Clear
4:52 AM 21.9 °F - 19.9 °F 92% 30.00 in 5.0 mi Calm Calm - N/A   Clear
5:52 AM 26.1 °F 21.9 °F 23.0 °F 88% 29.98 in 6.0 mi NNE 3.5 mph - N/A   Clear
6:52 AM 28.0 °F - 25.0 °F 88% 29.98 in 6.0 mi Calm Calm - N/A   Partly Cloudy
7:52 AM 28.0 °F 24.2 °F 25.0 °F 88% 29.96 in 5.0 mi NNE 3.5 mph - N/A   Clear
8:52 AM 30.0 °F 26.5 °F 27.0 °F 88% 29.95 in 5.0 mi NE 3.5 mph - N/A   Clear
9:52 AM 35.1 °F 30.1 °F 28.9 °F 78% 29.94 in 6.0 mi ENE 5.8 mph - N/A   Haze
10:52 AM 39.9 °F 37.8 °F 30.9 °F 70% 29.91 in 7.0 mi NNE 3.5 mph - N/A   Overcast
11:52 AM 44.1 °F 40.1 °F 33.1 °F 65% 29.88 in 7.0 mi SW 6.9 mph - N/A   Scattered Clouds
12:52 PM 48.0 °F - 33.1 °F 56% 29.83 in 8.0 mi Calm Calm - N/A   Overcast
1:52 PM 46.9 °F - 33.1 °F 59% 29.82 in 8.0 mi South 3.5 mph - N/A   Overcast
2:52 PM 44.1 °F 38.6 °F 34.0 °F 68% 29.81 in 7.0 mi NE 10.4 mph - N/A   Overcast
3:52 PM 43.0 °F 38.2 °F 34.0 °F 71% 29.83 in 6.0 mi ENE 8.1 mph - N/A   Haze
4:52 PM 41.0 °F 34.7 °F 35.1 °F 79% 29.83 in 7.0 mi NE 10.4 mph - N/A   Overcast
5:52 PM 39.0 °F 32.8 °F 34.0 °F 82% 29.87 in 9.0 mi NE 9.2 mph - N/A   Overcast
6:40 PM 37.9 °F 30.9 °F 34.0 °F 86% 29.86 in 8.0 mi NE 10.4 mph - N/A   Overcast
6:52 PM 37.9 °F 31.5 °F 34.0 °F 86% 29.89 in 8.0 mi NE 9.2 mph - N/A   Overcast
7:14 PM 37.9 °F 31.5 °F 35.1 °F 89% 29.87 in 7.0 mi NE 9.2 mph - N/A   Overcast
7:52 PM 37.9 °F 32.1 °F 34.0 °F 86% 29.91 in 7.0 mi NNE 8.1 mph - N/A   Overcast
8:04 PM 37.9 °F 32.1 °F 34.0 °F 86% 29.89 in 7.0 mi NNE 8.1 mph - N/A   Overcast
8:16 PM 37.9 °F 32.1 °F 34.0 °F 86% 29.89 in 8.0 mi NNE 8.1 mph - N/A   Overcast
8:23 PM 37.0 °F 31.0 °F 33.1 °F 86% 29.90 in 7.0 mi NNE 8.1 mph - N/A   Overcast
8:35 PM 36.0 °F 29.0 °F 32.0 °F 86% 29.90 in 5.0 mi North 9.2 mph - N/A   Overcast
8:52 PM 35.1 °F 26.4 °F 32.0 °F 89% 29.94 in 5.0 mi NNE 12.7 mph - N/A   Overcast
8:59 PM 35.1 °F 26.9 °F 30.9 °F 85% 29.91 in 5.0 mi NNE 11.5 mph - N/A   Overcast
9:23 PM 35.1 °F 26.9 °F 30.9 °F 85% 29.91 in 5.0 mi NNE 11.5 mph - N/A   Overcast
9:52 PM 34.0 °F 25.5 °F 30.9 °F 89% 29.96 in 5.0 mi NNE 11.5 mph - N/A   Overcast
10:52 PM 32.0 °F 23.6 °F 30.0 °F 92% 29.97 in 4.0 mi NNE 10.4 mph 18.4 mph N/A   Overcast
11:52 PM 30.9 °F 21.7 °F 27.0 °F 85% 30.00 in 5.0 mi NNE 11.5 mph 18.4 mph N/A   Overcast